| time (UTC) | temp F | wind direction | speed MPH | gust MPH | rain 1hr in | rain 24hr in | rain mn in | humidity % | barometer mb |
| 20260507060052 | 37 | 158 | 8.0 | 13.0 | 0.00 | 0.93 | 0.00 | 99 | 987.8 |
| 20260507054631 | 37 | 147 | 8.0 | 12.0 | 0.00 | 0.96 | 0.00 | 98 | 987.8 |
| 20260507053055 | 37 | 195 | 6.0 | 10.0 | 0.00 | 0.96 | 0.00 | 98 | 988.0 |
| 20260507051552 | 38 | 157 | 5.0 | 7.0 | 0.00 | 0.96 | 0.00 | 98 | 988.1 |
| 20260507050057 | 38 | 170 | 4.0 | 8.0 | 0.00 | 0.96 | 0.00 | 98 | 988.0 |
| 20260507044600 | 38 | 150 | 5.0 | 14.0 | 0.00 | 0.96 | 0.00 | 98 | 988.0 |
| 20260507043050 | 38 | 163 | 7.0 | 11.0 | 0.01 | 0.96 | 0.00 | 98 | 988.3 |
| 20260507041600 | 39 | 144 | 2.0 | 9.0 | 0.02 | 0.96 | 0.00 | 98 | 988.4 |
| 20260507040058 | 39 | 160 | 8.0 | 13.0 | 0.02 | 0.96 | 0.00 | 98 | 989.0 |
| 20260507034558 | 39 | 126 | 6.0 | 12.0 | 0.04 | 0.96 | 0.96 | 98 | 988.9 |
| 20260507033053 | 40 | 145 | 7.0 | 15.0 | 0.05 | 0.95 | 0.95 | 98 | 989.0 |
| 20260507031604 | 40 | 144 | 7.0 | 12.0 | 0.07 | 0.94 | 0.94 | 98 | 988.8 |
| 20260507030055 | 40 | 127 | 8.0 | 13.0 | 0.15 | 0.94 | 0.94 | 98 | 988.7 |
| 20260507024553 | 40 | 156 | 6.0 | 14.0 | 0.21 | 0.92 | 0.92 | 98 | 988.8 |
| 20260507023103 | 41 | 133 | 3.0 | 8.0 | 0.21 | 0.90 | 0.90 | 97 | 988.4 |
| 20260507021554 | 41 | 133 | 2.0 | 7.0 | 0.18 | 0.87 | 0.87 | 97 | 988.4 |
| 20260507020056 | 42 | 150 | 4.0 | 9.0 | 0.10 | 0.79 | 0.79 | 97 | 988.5 |
| 20260507014602 | 43 | 145 | 0.0 | 4.0 | 0.03 | 0.71 | 0.71 | 97 | 988.1 |
| 20260507013053 | 43 | 145 | 0.0 | 4.0 | 0.01 | 0.69 | 0.69 | 97 | 988.2 |
| 20260507011552 | 44 | 143 | 3.0 | 4.0 | 0.02 | 0.69 | 0.69 | 97 | 988.2 |
| 20260507010049 | 45 | 172 | 0.0 | 5.0 | 0.03 | 0.69 | 0.69 | 97 | 988.1 |
| 20260507004552 | 46 | 91 | 4.0 | 7.0 | 0.04 | 0.68 | 0.68 | 96 | 988.6 |
| 20260507003055 | 46 | 3 | 4.0 | 6.0 | 0.09 | 0.68 | 0.68 | 97 | 988.3 |
| 20260507001551 | 46 | 39 | 2.0 | 4.0 | 0.15 | 0.67 | 0.67 | 97 | 988.4 |
| 20260507000054 | 46 | 155 | 2.0 | 6.0 | 0.15 | 0.66 | 0.66 | 97 | 988.4 |
| 20260506234554 | 46 | 42 | 3.0 | 5.0 | 0.15 | 0.64 | 0.64 | 97 | 988.7 |
| 20260506233108 | 46 | 96 | 4.0 | 8.0 | 0.09 | 0.58 | 0.58 | 96 | 988.7 |
| 20260506231556 | 48 | 88 | 5.0 | 12.0 | 0.03 | 0.52 | 0.52 | 95 | 988.3 |
| 20260506230053 | 51 | 116 | 7.0 | 14.0 | 0.03 | 0.51 | 0.51 | 95 | 987.8 |
| 20260506224550 | 53 | 147 | 5.0 | 9.0 | 0.02 | 0.52 | 0.49 | 93 | 987.7 |
| 20260506223053 | 52 | 354 | 4.0 | 10.0 | 0.02 | 0.52 | 0.49 | 93 | 987.5 |
| 20260506221553 | 52 | 41 | 6.0 | 12.0 | 0.03 | 0.52 | 0.49 | 92 | 987.8 |
| 20260506220052 | 52 | 6 | 7.0 | 15.0 | 0.02 | 0.51 | 0.48 | 93 | 988.1 |
| 20260506214550 | 52 | 39 | 7.0 | 12.0 | 0.02 | 0.66 | 0.47 | 93 | 988.3 |
| 20260506213105 | 52 | 45 | 8.0 | 13.0 | 0.03 | 0.66 | 0.47 | 93 | 988.2 |
| 20260506211551 | 52 | 31 | 8.0 | 15.0 | 0.03 | 0.65 | 0.46 | 92 | 988.3 |
| 20260506210054 | 53 | 349 | 9.0 | 14.0 | 0.04 | 0.65 | 0.46 | 92 | 988.2 |
| 20260506204554 | 53 | 31 | 5.0 | 10.0 | 0.04 | 0.64 | 0.45 | 93 | 988.4 |
| 20260506203046 | 53 | 49 | 5.0 | 10.0 | 0.04 | 0.63 | 0.44 | 94 | 988.3 |
| 20260506201550 | 53 | 31 | 5.0 | 11.0 | 0.04 | 0.62 | 0.43 | 94 | 988.4 |
| 20260506200051 | 53 | 33 | 5.0 | 10.0 | 0.05 | 0.61 | 0.42 | 93 | 988.5 |
| 20260506194616 | 52 | 16 | 7.0 | 12.0 | 0.06 | 0.60 | 0.41 | 93 | 988.7 |
| 20260506193102 | 52 | 321 | 4.0 | 14.0 | 0.06 | 0.58 | 0.40 | 93 | 988.9 |
| 20260506191551 | 52 | 28 | 5.0 | 11.0 | 0.12 | 0.58 | 0.39 | 93 | 989.1 |
| 20260506190052 | 52 | 22 | 7.0 | 18.0 | 0.12 | 0.56 | 0.37 | 93 | 989.3 |
| 20260506184550 | 52 | 29 | 7.0 | 19.0 | 0.13 | 0.54 | 0.35 | 94 | 989.2 |
| 20260506183051 | 51 | 346 | 4.0 | 12.0 | 0.17 | 0.52 | 0.34 | 94 | 989.5 |
| 20260506181550 | 51 | 9 | 5.0 | 10.0 | 0.13 | 0.46 | 0.27 | 93 | 989.7 |
| 20260506180104 | 51 | 360 | 6.0 | 12.0 | 0.11 | 0.44 | 0.25 | 94 | 989.5 |
| 20260506174555 | 50 | 341 | 7.0 | 12.0 | 0.08 | 0.40 | 0.21 | 94 | 989.7 |
| 20260506173057 | 52 | 322 | 6.0 | 16.0 | 0.04 | 0.36 | 0.17 | 92 | 989.7 |
| 20260506171601 | 53 | 16 | 10.0 | 15.0 | 0.02 | 0.33 | 0.14 | 91 | 989.7 |
| 20260506170111 | 52 | 27 | 9.0 | 21.0 | 0.02 | 0.33 | 0.14 | 93 | 990.0 |
| 20260506164607 | 52 | 326 | 13.0 | 21.0 | 0.01 | 0.32 | 0.13 | 91 | 990.2 |
| 20260506163124 | 52 | 33 | 14.0 | 21.0 | 0.01 | 0.32 | 0.13 | 91 | 990.7 |
| 20260506161614 | 52 | 350 | 11.0 | 22.0 | 0.00 | 0.31 | 0.12 | 91 | 991.0 |
| 20260506160053 | 53 | 16 | 11.0 | 19.0 | 0.00 | 0.31 | 0.12 | 90 | 991.1 |
| 20260506154609 | 53 | 14 | 15.0 | 29.0 | 0.00 | 0.31 | 0.12 | 90 | 991.5 |
| 20260506153102 | 53 | 8 | 12.0 | 19.0 | 0.00 | 0.31 | 0.12 | 91 | 991.2 |
| 20260506151600 | 52 | 5 | 11.0 | 16.0 | 0.01 | 0.31 | 0.12 | 92 | 991.1 |
| 20260506150051 | 51 | 340 | 14.0 | 21.0 | 0.03 | 0.31 | 0.12 | 94 | 991.1 |
| 20260506144551 | 50 | 330 | 17.0 | 27.0 | 0.04 | 0.31 | 0.12 | 94 | 990.8 |
| 20260506143104 | 50 | 332 | 15.0 | 25.0 | 0.04 | 0.31 | 0.12 | 94 | 990.8 |
| 20260506141556 | 49 | 339 | 15.0 | 24.0 | 0.03 | 0.30 | 0.11 | 95 | 991.4 |
| 20260506140049 | 48 | 322 | 18.0 | 28.0 | 0.01 | 0.28 | 0.09 | 96 | 991.6 |
| 20260506134550 | 48 | 343 | 20.0 | 29.0 | 0.00 | 0.27 | 0.08 | 97 | 991.3 |
| 20260506133053 | 47 | 337 | 20.0 | 29.0 | 0.00 | 0.27 | 0.08 | 97 | 990.9 |
| 20260506131550 | 48 | 337 | 20.0 | 32.0 | 0.00 | 0.27 | 0.08 | 95 | 991.5 |
| 20260506130053 | 48 | 342 | 17.0 | 32.0 | 0.00 | 0.27 | 0.08 | 94 | 991.5 |
| 20260506124552 | 49 | 13 | 10.0 | 17.0 | 0.00 | 0.27 | 0.08 | 93 | 992.0 |
| 20260506123054 | 48 | 115 | 1.0 | 5.0 | 0.00 | 0.27 | 0.08 | 95 | 992.0 |
| 20260506121600 | 48 | 131 | 5.0 | 7.0 | 0.00 | 0.27 | 0.08 | 94 | 992.3 |
| 20260506120059 | 48 | 262 | 2.0 | 5.0 | 0.00 | 0.27 | 0.08 | 94 | 992.4 |
| 20260506114559 | 48 | 160 | 2.0 | 5.0 | 0.00 | 0.27 | 0.08 | 94 | 992.6 |
| 20260506113054 | 49 | 131 | 2.0 | 5.0 | 0.00 | 0.27 | 0.08 | 92 | 992.4 |
| 20260506111551 | 49 | 49 | 1.0 | 4.0 | 0.00 | 0.27 | 0.08 | 91 | 992.3 |
| 20260506104550 | 48 | 2 | 3.0 | 5.0 | 0.00 | 0.27 | 0.08 | 92 | 992.2 |
| 20260506103049 | 48 | 14 | 3.0 | 9.0 | 0.00 | 0.27 | 0.08 | 92 | 992.6 |
| 20260506101602 | 46 | 343 | 5.0 | 8.0 | 0.00 | 0.27 | 0.08 | 94 | 992.5 |
| 20260506100050 | 46 | 10 | 2.0 | 5.0 | 0.00 | 0.27 | 0.08 | 94 | 992.9 |
| 20260506094615 | 46 | 24 | 2.0 | 6.0 | 0.00 | 0.27 | 0.08 | 94 | 992.7 |
| 20260506093054 | 46 | 351 | 5.0 | 7.0 | 0.00 | 0.27 | 0.08 | 95 | 992.5 |
| 20260506091550 | 46 | 8 | 1.0 | 4.0 | 0.00 | 0.27 | 0.08 | 94 | 993.1 |
| 20260506090052 | 46 | 349 | 2.0 | 6.0 | 0.00 | 0.27 | 0.08 | 93 | 992.4 |
| 20260506084552 | 47 | 55 | 2.0 | 6.0 | 0.00 | 0.27 | 0.08 | 94 | 992.4 |
| 20260506083059 | 47 | 28 | 4.0 | 8.0 | 0.00 | 0.27 | 0.08 | 94 | 992.8 |
| 20260506081555 | 46 | 321 | 3.0 | 5.0 | 0.02 | 0.27 | 0.08 | 95 | 992.5 |
| 20260506073053 | 47 | 123 | 3.0 | 9.0 | 0.05 | 0.27 | 0.08 | 94 | 993.0 |
| 20260506071550 | 47 | 118 | 2.0 | 9.0 | 0.03 | 0.25 | 0.06 | 93 | 992.8 |
| 20260506061549 | 48 | 28 | 4.0 | 8.0 | 0.03 | 0.22 | 0.03 | 95 | 992.6 |